BIPCOM Weather Reports


time (UTC)temp
F
wind
direction
speed
knots
gust
knots
rain 1hr
in
rain 24hr
in
rain mn
in
humidity
%
barometer
mb
20260505111506 56 27 14.8 16.5 0.00 0.00 0.00 76 1011.1
20260505111057 56 33 13.0 15.6 0.00 0.00 0.00 77 1011.0
20260505110547 56 40 13.0 15.6 0.00 0.00 0.00 76 1011.0
20260505102006 56 30 11.3 14.8 0.00 0.00 0.00 79 1011.4
20260505101558 56 39 13.0 14.8 0.00 0.00 0.00 79 1011.4
20260505101048 56 41 11.3 13.0 0.00 0.00 0.00 80 1011.5
20260505100538 56 36 12.2 13.0 0.00 0.00 0.00 80 1011.4
20260505100032 56 38 10.4 13.0 0.00 0.00 0.00 80 1011.4
20260505095515 55 36 11.3 14.8 0.00 0.00 0.00 80 1011.5
20260505095005 55 39 11.3 14.8 0.00 0.00 0.00 80 1011.5
20260505094557 55 43 12.2 14.8 0.00 0.00 0.00 80 1011.5
20260505094047 55 35 13.0 16.5 0.00 0.00 0.00 80 1011.7
20260505093526 55 26 13.9 16.5 0.00 0.00 0.00 80 1011.5
20260505093016 55 27 13.0 15.6 0.00 0.00 0.00 80 1011.5
20260505092508 55 42 12.2 14.8 0.00 0.00 0.00 80 1011.5
20260505092058 55 26 13.0 15.6 0.00 0.00 0.00 80 1011.5
20260505091547 55 40 13.0 15.6 0.00 0.00 0.00 81 1011.6
20260505091037 54 31 13.0 16.5 0.00 0.00 0.00 81 1011.6
20260505090527 54 31 13.9 16.5 0.00 0.00 0.00 81 1011.7
20260505090017 54 22 13.9 16.5 0.00 0.00 0.00 81 1011.5
20260505085507 55 40 13.9 17.4 0.00 0.00 0.00 81 1011.5
20260505085059 55 33 13.0 19.1 0.00 0.00 0.00 81 1011.6
20260505084549 55 22 14.8 18.2 0.00 0.00 0.00 81 1011.5
20260505084038 55 29 16.5 18.2 0.00 0.00 0.00 81 1011.6
20260505083517 54 24 16.5 18.2 0.00 0.00 0.00 80 1011.6
20260505083013 54 22 15.6 18.2 0.00 0.00 0.00 81 1011.5
20260505082559 54 22 15.6 18.2 0.00 0.00 0.00 80 1011.5
20260505082049 54 15 13.9 18.2 0.00 0.00 0.00 80 1011.5
20260505081546 54 28 16.5 19.1 0.00 0.00 0.00 81 1011.4
20260505081029 54 5 15.6 20.0 0.00 0.00 0.00 81 1011.5
20260505080519 54 12 17.4 20.0 0.00 0.00 0.00 81 1011.4
20260505080025 54 13 15.6 19.1 0.00 0.00 0.00 81 1011.4
20260505075557 54 5 14.8 17.4 0.00 0.00 0.00 83 1011.4
20260505075047 54 22 13.9 15.6 0.00 0.00 0.00 83 1011.4
20260505074542 54 14 13.9 15.6 0.00 0.00 0.00 83 1011.4
20260505074027 54 19 13.9 18.2 0.00 0.00 0.00 84 1011.4
20260505073506 54 14 15.6 17.4 0.00 0.00 0.00 84 1011.4
20260505073106 54 13 14.8 17.4 0.00 0.00 0.00 84 1011.3
20260505072547 53 19 14.8 16.5 0.00 0.00 0.00 84 1011.3
20260505072037 53 20 13.0 15.6 0.00 0.00 0.00 86 1011.4
20260505071534 53 24 12.2 13.9 0.00 0.00 0.00 87 1011.4
20260505071018 53 30 11.3 14.8 0.00 0.00 0.00 87 1011.4
20260505070510 53 19 12.2 14.8 0.00 0.00 0.00 88 1011.4
20260505070059 53 18 12.2 14.8 0.00 0.00 0.00 88 1011.5
20260505065549 52 13 12.2 14.8 0.00 0.00 0.00 88 1011.5
20260505065038 53 9 10.4 13.9 0.00 0.00 0.00 89 1011.5
20260505064547 52 23 11.3 13.9 0.00 0.00 0.00 89 1011.5
20260505064007 52 20 11.3 13.9 0.00 0.00 0.00 90 1011.6
20260505063550 52 22 11.3 13.9 0.00 0.00 0.00 89 1011.7
20260505063046 52 15 12.2 14.8 0.00 0.00 0.00 89 1011.7
20260505062530 52 5 13.0 14.8 0.00 0.00 0.00 89 1011.6
20260505062020 52 5 12.2 14.8 0.00 0.00 0.00 89 1011.6
20260505061514 52 12 12.2 17.4 0.00 0.00 0.00 89 1011.6
20260505061101 52 11 13.9 17.4 0.00 0.00 0.00 89 1011.6
20260505060551 52 16 13.9 15.6 0.00 0.00 0.00 89 1011.6
20260505060041 52 5 12.2 15.6 0.00 0.00 0.00 89 1011.7
20260505055531 52 14 12.2 16.5 0.00 0.00 0.00 89 1011.7
20260505055021 52 15 13.0 16.5 0.00 0.00 0.00 89 1011.6
20260505054511 53 21 13.9 16.5 0.00 0.00 0.00 90 1011.5
20260505054103 53 26 13.9 16.5 0.00 0.00 0.00 90 1011.4
20260505053541 53 24 13.9 15.6 0.00 0.00 0.00 89 1011.5
20260505053031 53 24 13.0 16.5 0.00 0.00 0.00 89 1011.5
20260505052521 53 10 13.9 16.5 0.00 0.00 0.00 89 1011.4
20260505052011 53 19 13.9 16.5 0.00 0.00 0.00 89 1011.4
20260505051502 53 29 14.8 16.5 0.00 0.00 0.00 89 1011.4
20260505051052 53 14 13.9 18.2 0.00 0.00 0.00 89 1011.4
20260505050542 53 14 15.6 18.2 0.00 0.00 0.00 89 1011.2
20260505041612 53 18 11.3 13.0 0.00 0.00 0.00 90 1011.2
20260505041044 53 9 10.4 12.2 0.00 0.00 0.00 91 1011.4
20260505040534 53 5 8.7 11.3 0.00 0.00 0.00 91 1011.4
20260505040024 53 5 8.7 11.3 0.00 0.00 0.00 91 1011.4
20260505035515 53 351 9.6 11.3 0.00 0.00 0.00 91 1011.4
20260505035003 53 5 8.7 10.4 0.00 0.00 0.00 91 1011.5
20260505034600 53 360 7.8 10.4 0.00 0.00 0.00 91 1011.6
20260505034047 53 360 8.7 10.4 0.00 0.00 0.00 91 1011.6
20260505033526 53 355 8.7 11.3 0.00 0.00 0.00 91 1011.6
20260505033017 53 22 8.7 11.3 0.00 0.00 0.00 91 1011.6
20260505032503 54 5 8.7 11.3 0.00 0.00 0.00 91 1011.7
20260505032055 54 33 9.6 11.3 0.00 0.00 0.00 91 1011.8
20260505031549 53 46 7.8 10.4 0.00 0.00 0.00 91 1011.8
20260505031032 53 53 7.8 10.4 0.00 0.00 0.00 91 1011.8
20260505030522 54 49 7.0 12.2 0.00 0.00 0.00 91 1011.8
20260505030012 54 43 8.7 10.4 0.00 0.00 0.00 91 1011.9
20260505025502 54 45 8.7 12.2 0.00 0.00 0.00 91 1011.8
20260505025056 54 42 8.7 12.2 0.00 0.00 0.00 90 1011.8
20260505024547 54 37 10.4 12.2 0.00 0.00 0.00 90 1011.8
20260505024033 54 47 8.7 12.2 0.00 0.00 0.00 90 1011.8
20260505023512 54 42 10.4 13.9 0.00 0.00 0.00 90 1011.8
20260505023002 54 46 10.4 14.8 0.00 0.00 0.00 90 1011.8
20260505022554 54 39 11.3 14.8 0.00 0.00 0.00 90 1011.7
20260505022043 54 42 12.2 13.9 0.00 0.00 0.00 89 1011.8
20260505021539 54 38 12.2 13.9 0.00 0.00 0.00 89 1011.7
20260505021022 54 40 11.3 13.9 0.00 0.00 0.00 89 1011.8
20260505020512 54 24 8.7 13.0 0.00 0.00 0.00 89 1011.8
20260505020002 54 49 10.4 13.0 0.00 0.00 0.00 89 1011.8
20260505015557 54 49 10.4 12.2 0.00 0.00 0.00 89 1011.8
20260505015043 54 30 8.7 12.2 0.00 0.00 0.00 89 1011.9
20260505014540 54 37 10.4 11.3 0.00 0.00 0.00 89 1011.9
20260505014011 54 26 8.7 12.2 0.00 0.00 0.00 89 1011.9
20260505013501 54 13 9.6 13.0 0.00 0.00 0.00 89 1011.9
20260505013059 54 5 10.4 13.0 0.00 0.00 0.00 89 1011.8
20260505012543 55 13 9.6 12.2 0.00 0.00 0.00 89 1011.9
20260505012034 55 26 9.6 12.2 0.00 0.00 0.00 89 1012.0
20260505011523 55 42 10.4 12.2 0.00 0.00 0.00 89 1012.1
20260505011012 55 30 10.4 13.0 0.00 0.00 0.00 89 1012.2
20260505010504 55 40 11.3 13.0 0.00 0.00 0.00 89 1012.2
20260505010054 55 35 11.3 13.0 0.00 0.00 0.00 89 1012.2
20260505005544 55 24 11.3 13.0 0.00 0.00 0.00 89 1012.1
20260505005034 55 19 11.3 13.0 0.00 0.00 0.00 89 1012.1
20260505004524 55 19 9.6 12.2 0.00 0.00 0.00 89 1012.3
20260505004003 55 11 10.4 13.9 0.00 0.00 0.00 89 1012.3
20260505003553 55 14 10.4 14.8 0.00 0.00 0.00 89 1012.3
20260505003043 55 11 11.3 14.8 0.00 0.00 0.00 89 1012.1
20260505002536 55 13 12.2 14.8 0.00 0.00 0.00 89 1012.1
20260505002022 55 9 12.2 14.8 0.00 0.00 0.00 89 1012.1
20260505001515 55 360 11.3 13.9 0.00 0.00 0.00 89 1012.2
20260505001003 55 5 11.3 13.0 0.00 0.00 0.00 89 1012.2
20260505000553 55 13 11.3 13.0 0.00 0.00 0.00 89 1012.2
20260505000052 55 13 10.4 12.2 0.00 0.00 0.00 89 1012.3
20260504235533 55 14 10.4 12.2 0.00 0.00 0.00 89 1012.4
20260504235023 55 15 10.4 12.2 0.00 0.00 0.00 88 1012.4
20260504234512 56 18 9.6 11.3 0.00 0.00 0.00 89 1012.4
20260504234104 56 15 8.7 10.4 0.00 0.00 0.00 89 1012.4
20260504233543 56 15 7.8 11.3 0.00 0.00 0.00 89 1012.5
20260504233035 56 15 8.7 11.3 0.00 0.00 0.00 88 1012.5
20260504232524 56 21 9.6 11.3 0.00 0.00 0.00 88 1012.4
20260504232016 56 25 7.8 9.6 0.00 0.00 0.00 88 1012.4
20260504231513 56 36 6.1 7.8 0.00 0.00 0.00 88 1012.5
20260504231055 56 22 6.1 8.7 0.00 0.00 0.00 88 1012.4
20260504230545 56 26 7.8 8.7 0.00 0.00 0.00 88 1012.3
20260504230035 56 31 7.8 9.6 0.00 0.00 0.00 87 1012.3
20260504225524 56 34 7.8 9.6 0.00 0.00 0.00 87 1012.4
20260504225014 56 42 7.8 9.6 0.00 0.00 0.00 87 1012.4
20260504224506 56 49 6.1 8.7 0.00 0.00 0.00 86 1012.5
20260504224100 56 41 4.3 7.8 0.00 0.00 0.00 86 1012.5
20260504223536 56 32 5.2 7.8 0.00 0.00 0.00 85 1012.4
20260504223025 56 28 4.3 7.8 0.00 0.00 0.00 85 1012.5
20260504222515 56 20 6.1 8.7 0.00 0.00 0.00 84 1012.4
20260504222005 56 17 7.0 8.7 0.00 0.00 0.00 84 1012.4
20260504221602 56 31 5.2 7.8 0.00 0.00 0.00 83 1012.5
20260504221047 56 11 4.3 7.0 0.00 0.00 0.00 83 1012.5
20260504220536 56 5 4.3 6.1 0.00 0.00 0.00 83 1012.6
20260504220030 56 14 4.3 5.2 0.00 0.00 0.00 82 1012.6
20260504215516 56 14 5.2 6.1 0.00 0.00 0.00 82 1012.6
20260504215006 56 14 3.5 6.1 0.00 0.00 0.00 81 1012.7
20260504214558 56 316 2.6 4.3 0.00 0.00 0.00 81 1012.7
20260504214047 56 325 2.6 5.2 0.00 0.00 0.00 80 1012.7
20260504213528 56 317 3.5 4.3 0.00 0.00 0.00 80 1012.6
20260504213016 56 317 2.6 4.3 0.00 0.00 0.00 80 1012.6
20260504212508 56 309 2.6 4.3 0.00 0.00 0.00 79 1012.5
20260504212058 56 293 3.5 5.2 0.00 0.00 0.00 79 1012.5
20260504211551 56 296 2.6 5.2 0.00 0.00 0.00 79 1012.5
20260504211037 56 313 2.6 5.2 0.00 0.00 0.00 79 1012.5
20260504210527 56 313 2.6 5.2 0.00 0.00 0.00 79 1012.5
20260504210017 56 291 2.6 6.1 0.00 0.00 0.00 79 1012.5
20260504205507 56 291 2.6 7.0 0.00 0.00 0.00 79 1012.6
20260504205058 56 292 3.5 7.0 0.00 0.00 0.00 79 1012.6
20260504204559 56 291 2.6 5.2 0.00 0.00 0.00 79 1012.5
20260504204038 56 301 2.6 4.3 0.00 0.00 0.00 79 1012.5
20260504203517 56 274 1.7 5.2 0.00 0.00 0.00 79 1012.4
20260504203018 56 296 2.6 7.0 0.00 0.00 0.00 79 1012.4
20260504202559 56 317 3.5 7.0 0.00 0.00 0.00 79 1012.4
20260504202049 56 295 4.3 7.8 0.00 0.00 0.00 79 1012.4
20260504201546 56 308 4.3 7.8 0.00 0.00 0.00 79 1012.4
20260504201029 57 319 3.5 7.0 0.00 0.00 0.00 79 1012.4
20260504200518 57 309 2.6 4.3 0.00 0.00 0.00 78 1012.3
20260504200008 57 292 1.7 3.5 0.00 0.00 0.00 78 1012.4
20260504195557 57 292 0.9 3.5 0.00 0.00 0.00 78 1012.5
20260504195045 57 292 1.7 4.3 0.00 0.00 0.00 78 1012.4
20260504194556 57 292 1.7 4.3 0.00 0.00 0.00 78 1012.4
20260504194025 57 298 2.6 3.5 0.00 0.00 0.00 78 1012.4
20260504193505 57 265 1.7 5.2 0.00 0.00 0.00 78 1012.2
20260504193056 57 265 2.6 5.2 0.00 0.00 0.00 78 1012.1
20260504192545 57 293 1.7 4.3 0.00 0.00 0.00 78 1012.1
20260504192035 57 281 1.7 6.1 0.00 0.00 0.00 78 1012.1
20260504191529 57 284 2.6 7.0 0.00 0.00 0.00 78 1012.2
20260504191016 57 275 3.5 7.8 0.00 0.00 0.00 78 1012.2
20260504190505 57 308 4.3 7.8 0.00 0.00 0.00 78 1012.2
20260504190125 57 300 4.3 8.7 0.00 0.00 0.00 78 1012.1
20260504185546 57 316 4.3 7.8 0.00 0.00 0.00 78 1012.1
20260504185036 57 309 4.3 7.8 0.00 0.00 0.00 78 1012.1
20260504184533 57 303 3.5 7.8 0.00 0.00 0.00 78 1012.1
20260504184005 57 259 4.3 8.7 0.00 0.00 0.00 78 1012.1
20260504183558 57 205 3.5 9.6 0.00 0.00 0.00 79 1012.1
20260504183047 57 197 7.8 9.6 0.00 0.00 0.00 78 1012.0
20260504182527 58 192 7.0 8.7 0.00 0.00 0.00 78 1011.9
20260504182017 58 171 3.5 4.3 0.00 0.00 0.00 76 1011.9
20260504181508 59 192 2.6 4.3 0.00 0.00 0.00 76 1011.8
20260504181059 59 192 3.5 4.3 0.00 0.00 0.00 75 1011.8
20260504180548 59 180 2.6 3.5 0.00 0.00 0.00 75 1011.7
20260504180106 59 180 1.7 3.5 0.00 0.00 0.00 73 1011.7
20260504175528 60 218 0.0 1.7 0.00 0.00 0.00 73 1011.8
20260504175018 59 218 0.9 1.7 0.00 0.00 0.00 73 1011.7
20260504174507 59 219 0.0 3.5 0.00 0.00 0.00 73 1011.7
20260504174059 59 218 1.7 3.5 0.00 0.00 0.00 73 1011.7
20260504173538 59 219 0.9 3.5 0.00 0.00 0.00 73 1011.7
20260504173028 59 219 1.7 4.3 0.00 0.00 0.00 74 1011.7
20260504172517 59 205 2.6 6.1 0.00 0.00 0.00 74 1011.7
20260504172008 59 211 2.6 7.0 0.00 0.00 0.00 74 1011.7
20260504171602 59 238 2.6 7.0 0.00 0.00 0.00 74 1011.7
20260504171049 59 225 3.5 6.1 0.00 0.00 0.00 73 1011.7
20260504170539 60 209 3.5 6.1 0.00 0.00 0.00 72 1011.7
20260504151033 58 238 7.8 13.0 0.00 0.00 0.00 74 1012.0
20260504150521 58 240 8.7 13.9 0.00 0.00 0.00 74 1012.0
20260504141018 59 215 5.2 13.0 0.00 0.00 0.00 76 1012.4
20260504140506 58 204 6.1 11.3 0.00 0.00 0.00 76 1012.4
20260504140122 58 228 6.1 10.4 0.00 0.00 0.00 76 1012.4
20260504130554 58 224 4.3 10.4 0.00 0.00 0.00 79 1012.4